DECAYED

JIELONG 3 DEB, 67754 (Decayed)

Orbit data source: Space-Track

JIELONG 3 DEB, 67754 was space debris in LEO originally from a launch on Thu, 12 Feb 2026 UTC launched from the South China Sea Launch Area (SCSLA). Debris objects in space refer to the collection of defunct objects orbiting the Earth. Examples of debris include non-operational satellites, rocket bodies, and fragments generated from explosions, collisions, or faulty payload assembly.

Not visible in the next 10 days
Identifier
67754, 2026-027J
Orbit
Decayed
Country
Flag of CNCN / PRC
Related business
Manufacturer
CAST
Mission
Decayed spacecraft
Bus & Motor
Unknown
Mass
Unknown
Launch date (UTC)
2026-02-12 (4 months ago)
Launch vehicle
Unknown
Launch site
South China Sea Launch Area (SCSLA)
Object type
Payload
Rocket body
Debris
Shape & HBR
Unknown shape, 1.1 m
Radar Cross Section
Medium (>0.1 m² and <1 m²)

Expand to show TLE details & history
Last TLE update: 3 months ago

TLE from 3 months ago
0 JIELONG 3 DEB
1 67754U 26027J   26068.58541937  .12424544  23987-5  30812-3 0  9997
2 67754  97.4912 200.1849 0053557 253.0553 106.4871 16.38523310  3940
Epoch: 2026-03-09T14:03Z
TLE epoch observation values (Epoch: 2026-03-09T14:03:00.233Z)
Latitude
Longitude
-177.84232°
Altitude
183.107 km
Speed
7.79 km/s
True Right ascension
13h 20m 44s
True Declination
0° 00' 00"
Sunlit
Object was in full shadow at epoch
Visualization orbit readout
Latitude
Unknown
Longitude
Unknown
Altitude
Unknown
Speed
Unknown
Apparent Right ascension
Unknown
Apparent Declination
Unknown
Sunlit
N/A
Visualization observer readout
Local Sidereal Time
12:57:59
Azimuth
Unknown
Elevation
Unknown
Doppler factor
Unknown
Orbital elements
Apogee altitude
201.599 km
Perigee altitude
131.496 km
Semi-major axis
6,544.684 km
Eccentricity
0.00536
Inclination
97.4912°
RAAN
200.1849°
Arg. of periapsis
253.0553°
True anomaly
107.07446°
Mean anomaly
106.4871°
Eccentric anomaly
106.78089°
Mean motion
4.0993 °/min
Orbital period
87.82 mins
BSTAR
0.00030812
Loading maneuver chart data...
Computing Atmospheric mass density...
Loading historical data...
Loading historical data...
Loading historical data...
Loading historical data...
Loading historical data...
Loading historical data...
Loading historical data...

Documentation

Showing up to 5 results
|